Theta_e
329 327 328 336 335 334 339 345 358 361 358 359 357 356 356 353 351 350 348 350 350 343
327 330 329 338 345 338 347 344 351 355 357 357 356 354 357 350 351 351 352 352 351 346
326 328 329 333 338 342 348 348 347 354 356 355 354 354 354 353 354 353 351 350 349 349
326 328 329 332 333 339 346 345 344 350 353 353 351 353 355 357 353 351 350 349 346 347
326 329 333 333 337 340 341 343 341 348 349 348 350 354 354 352 350 349 348 346 346 344
322 326 332 336 338 339 343 342 343 346 347 347 349 352 353 351 350 349 347 346 345 344
322 322 330 337 337 339 338 339 343 346 347 347 349 351 351 351 350 348 347 346 346 342
321 322 329 336 337 339 340 340 344 346 347 348 349 348 350 350 348 347 345 346 342 342
320 322 327 338 337 339 340 343 345 346 346 348 346 316 320 339 347 345 342 340 339 340
319 322 327 336 336 341 346 352 352 351 349 349 350 312 312 319 346 342 340 339 339 337
319 322 329 335 338 345 351 352 352 351 351 350 340 309 310 314 342 341 341 340 340 339
320 322 332 334 342 349 351 351 351 350 350 347 332 306 307 322 340 339 338 339 339 338
321 326 334 341 344 347 349 348 345 346 347 331 335 301 306 321 334 335 335 338 338 308
331 335 337 339 339 340 340 342 343 342 343 343 334 317 304 304 334 333 333 333 333 332
Wind_Speed
15 12 14 16 14 13 12 10 11 13 14 15 16 15 14 12 11 11 10 13 11 7
15 15 14 17 13 12 11 11 12 15 16 16 16 16 14 11 11 11 11 12 11 10
16 16 16 15 16 15 11 12 13 14 16 16 16 14 15 12 13 12 11 9 11 10
17 18 17 16 17 16 13 14 16 16 16 16 17 18 17 14 14 14 13 11 12 12
17 19 18 18 17 16 14 14 16 17 17 18 18 18 17 16 14 15 15 14 14 12
18 19 20 18 17 17 15 16 18 19 19 19 18 18 17 16 15 15 14 14 13 12
18 18 20 19 19 19 18 18 19 19 20 19 19 18 17 16 15 14 13 13 12 10
17 19 22 22 20 18 17 17 19 19 19 19 17 15 18 16 15 15 14 12 10 10
20 20 22 21 20 18 19 19 19 19 20 19 14 16 14 17 16 15 14 12 11 10
21 22 23 21 21 20 19 17 18 18 18 19 14 20 16 13 14 14 12 12 11 10
22 21 23 22 21 19 18 19 17 18 18 17 13 19 18 14 15 11 12 12 12 10
23 21 24 23 20 19 18 17 17 18 19 16 16 18 18 14 13 12 12 11 11 10
21 25 23 20 19 18 17 18 17 16 15 17 21 13 18 12 11 13 10 10 9 8
24 24 19 16 15 16 16 17 16 16 15 20 19 14 14 11 11 11 10 10 8 8
Wind_Direction
254 250 248 241 245 242 235 227 230 205 201 204 200 204 203 195 201 184 195 209 224 210
261 255 258 265 255 238 244 234 224 211 206 197 206 195 188 198 191 174 196 205 205 221
269 262 260 258 255 251 239 228 238 214 206 193 198 189 183 184 181 181 197 205 198 209
272 268 260 256 254 248 233 219 222 213 201 193 190 190 191 181 171 189 193 193 198 197
272 269 254 252 249 242 230 219 217 210 195 191 192 188 187 178 171 192 188 189 203 196
264 269 265 251 249 240 224 213 214 210 199 189 188 185 186 176 178 189 185 186 193 198
264 267 266 255 246 238 225 216 211 207 199 188 181 185 180 177 180 178 181 187 189 192
259 261 265 253 245 236 222 215 208 199 195 183 178 184 176 177 173 174 176 177 181 192
263 254 254 244 234 223 215 208 200 191 187 175 183 149 152 165 169 169 174 173 182 167
262 253 248 236 221 211 203 190 189 182 177 173 170 137 142 153 163 173 169 171 178 184
252 246 243 223 210 200 187 181 176 174 170 168 141 137 142 150 161 159 169 173 178 187
240 234 229 207 197 183 174 170 168 166 164 155 148 144 149 169 158 164 172 176 177 184
234 229 209 192 177 170 166 162 163 150 153 140 150 158 154 173 172 160 164 174 158 58
209 196 178 154 155 158 151 149 136 141 144 151 148 157 162 203 163 163 177 182 172 168